1537023600.96,49189,20.69,74232.3,4.93,-17.07,-12.43,0,*7B
1537023602.22,49190,20.63,74226.0,4.93,-14.29,-11.59,0,*74
1537023603.49,49191,20.63,74220.5,4.91,-13.01,-11.85,0,*7B
1537023604.71,49192,20.63,74230.5,4.89,-12.03,-12.15,0,*78
1537023605.96,49193,20.69,74234.5,4.91,-11.63,-12.43,0,*76
1537023607.18,49194,20.63,74232.8,4.89,-11.81,-12.03,0,*70
1537023608.45,49195,20.69,74220.5,4.91,-11.77,-11.37,0,*75
1537023609.7,49196,20.63,74228.5,4.91,-11.29,-11.01,0,*78
1537023610.98,49197,20.63,74232.8,4.93,-11.33,-11.97,0,*7F
1537023612.18,49198,20.63,74234.5,4.95,-13.55,-13.15,0,*7C
1537023613.42,49199,20.69,74228.0,4.95,-15.39,-12.29,0,*7F
1537023614.65,49200,20.63,74188.5,4.95,-16.17,-11.15,0,*7F
1537023615.87,49201,20.63,74190.5,4.99,-15.53,-9.49,0,*41
1537023617.06,49202,20.69,74210.8,4.99,-14.65,-8.25,0,*4D
1537023618.31,49203,20.63,74224.0,4.97,-12.25,-6.27,0,*4C
1537023619.51,49204,20.63,74226.8,4.99,-8.89,-4.37,0,*7B
1537023620.72,49205,20.63,74218.0,4.99,-7.39,-4.05,0,*7F
1537023621.94,49206,20.63,74216.5,5.01,-6.47,-4.21,0,*72
1537023623.21,49207,20.63,74220.3,5.01,-6.19,-4.73,0,*7F
1537023624.4,49208,20.69,74240.5,5.07,-5.47,-4.57,0,*78
1537023625.62,49209,20.63,74246.3,5.03,-5.43,-5.31,0,*78
1537023626.87,49210,20.69,74236.3,5.03,-5.15,-5.89,0,*70
1537023628.06,49211,20.69,74242.5,5.03,-5.55,-6.59,0,*7B
1537023629.28,49212,20.63,74236.3,5.03,-5.15,-6.43,0,*77
1537023630.52,49213,20.69,74242.3,5.09,-5.47,-7.57,0,*7F
1537023631.74,49214,20.63,74226.5,5.11,-6.27,-10.09,0,*49
1537023632.98,49215,20.63,74214.5,5.11,-8.11,-11.97,0,*45
1537023634.22,49216,20.63,74210.3,5.13,-9.83,-12.89,0,*42
1537023635.47,49217,20.63,74218.3,5.15,-10.63,-15.35,0,*73
1537023636.71,49218,20.63,74222.3,5.17,-13.51,-20.39,0,*76
1537023637.91,49219,20.63,74214.8,5.15,-16.83,-22.03,0,*74
1537023639.14,49220,20.63,74200.0,5.15,-17.87,-21.57,0,*79
1537023640.36,49221,20.63,74190.5,5.17,-18.99,-21.77,0,*78
1537023641.62,49222,20.63,74196.5,5.17,-18.99,-21.03,0,*78
1537023642.82,49223,20.69,74202.8,5.15,-19.95,-21.43,0,*72
1537023644.04,49224,20.69,74210.5,5.15,-20.15,-21.17,0,*76
1537023645.24,49225,20.69,74214.8,5.15,-20.89,-22.27,0,*72
1537023646.44,49226,20.69,74222.8,5.15,-21.43,-21.73,0,*74
1537023647.69,49227,20.69,74208.8,5.17,-20.99,-21.39,0,*7F
1537023648.94,49228,20.63,74206.5,5.15,-21.33,-21.03,0,*7A
1537023650.19,49229,20.63,74202.5,5.17,-21.33,-21.17,0,*7C
1537023651.42,49230,20.63,74202.0,5.15,-20.59,-19.31,0,*74
1537023652.65,49231,20.63,74188.8,5.15,-17.41,-16.37,0,*71
1537023653.88,49232,20.69,74206.8,5.15,-16.37,-15.43,0,*72
1537023655.13,49233,20.63,74204.8,5.17,-16.65,-15.11,0,*71
1537023656.4,49234,20.69,74214.3,5.17,-16.17,-14.43,0,*75
1537023657.62,49235,20.63,74206.8,5.17,-14.69,-15.63,0,*7C
1537023658.86,49236,20.63,74206.3,5.17,-16.45,-17.79,0,*7A
1537023660.1,49237,20.63,74216.0,5.15,-17.41,-17.87,0,*7D
1537023661.32,49238,20.69,74232.8,5.15,-18.89,-18.65,0,*7A
1537023662.53,49239,20.69,74228.3,5.15,-19.37,-18.11,0,*7C
1537023663.73,49240,20.69,74214.5,5.15,-18.45,-16.83,0,*73
1537023664.96,49241,20.63,74218.8,5.15,-17.31,-16.13,0,*77
1537023666.18,49242,20.63,74216.0,5.15,-15.43,-16.37,0,*75
1537023667.42,49243,20.63,74230.5,5.17,-15.01,-15.71,0,*71
1537023668.67,49244,20.63,74230.5,5.17,-15.71,-16.31,0,*76
1537023669.89,49245,20.63,74228.8,5.15,-17.25,-18.79,0,*74
1537023671.17,49246,20.69,74226.5,5.17,-19.27,-19.81,0,*7F
1537023672.41,49247,20.69,74228.3,5.13,-18.79,-18.89,0,*79
1537023673.68,49248,20.69,74230.3,5.13,-19.81,-18.01,0,*70
1537023674.93,49249,20.69,74234.3,5.13,-18.31,-15.15,0,*73
1537023676.13,49250,20.63,74222.5,5.11,-15.49,-14.37,0,*7A
1537023677.41,49251,20.69,74224.3,5.13,-14.47,-15.43,0,*74
1537023678.63,49252,20.69,74218.3,5.11,-15.21,-16.59,0,*7C
1537023679.88,49253,20.63,74224.8,5.13,-15.29,-17.41,0,*7F
1537023681.1,49254,20.69,74238.0,5.13,-16.93,-17.87,0,*70
1537023682.33,49255,20.69,74232.3,5.15,-18.31,-16.93,0,*75
1537023683.57,49256,20.69,74234.5,5.11,-17.93,-17.93,0,*74
1537023684.8,49257,20.63,74228.5,5.11,-20.59,-21.67,0,*79
1537023686.03,49258,20.69,74238.8,5.11,-24.31,-24.15,0,*7C
1537023687.28,49259,20.69,74254.0,5.07,-24.15,-22.77,0,*7E
1537023688.53,49260,20.63,74254.8,5.07,-25.03,-23.19,0,*7B
1537023689.74,49261,20.63,74248.8,5.07,-24.51,-22.87,0,*7A
1537023690.96,49262,20.69,74244.0,5.03,-24.77,-23.95,0,*7B
1537023692.16,49263,20.63,74236.5,4.99,-24.97,-24.61,0,*7A
1537023693.39,49264,20.69,74242.8,4.99,-24.61,-23.99,0,*74
1537023694.66,49265,20.69,74250.0,4.97,-24.67,-23.03,0,*7E
1537023695.95,49266,20.69,74254.3,4.97,-24.71,-21.67,0,*7A
1537023697.16,49267,20.69,74254.5,4.95,-24.51,-19.75,0,*73
1537023698.43,49268,20.69,74260.8,4.93,-24.25,-17.69,0,*7A
1537023699.68,49269,20.63,74260.8,4.95,-23.99,-16.13,0,*71
1537023700.91,49270,20.69,74262.0,4.93,-22.27,-13.47,0,*7F
1537023702.14,49271,20.63,74260.0,4.89,-18.99,-11.63,0,*7D
1537023703.38,49272,20.69,74264.3,4.91,-16.51,-10.53,0,*7F
1537023704.65,49273,20.69,74256.8,4.91,-13.87,-9.11,0,*4E
1537023705.9,49274,20.69,74250.8,4.91,-13.29,-9.71,0,*4B
1537023707.15,49275,20.69,74240.3,4.91,-12.83,-10.35,0,*73
1537023708.4,49276,20.63,74234.8,4.91,-11.63,-9.79,0,*4D
1537023709.61,49277,20.63,74226.5,4.91,-9.23,-8.97,0,*70
1537023710.82,49278,20.63,74216.5,4.93,-8.55,-8.59,0,*7F
1537023712.05,49279,20.69,74210.0,4.95,-8.17,-7.61,0,*7A
1537023713.28,49280,20.69,74222.0,4.97,-9.53,-9.19,0,*7E
1537023714.47,49281,20.69,74230.3,4.95,-9.23,-8.63,0,*76
1537023715.69,49282,20.63,74226.8,4.97,-9.89,-10.27,0,*4E
1537023716.89,49283,20.69,74226.8,4.99,-10.15,-11.11,0,*78
1537023718.1,49284,20.63,74226.8,4.99,-10.53,-13.19,0,*77
1537023719.35,49285,20.69,74226.5,4.99,-11.93,-13.79,0,*7D
1537023720.58,49286,20.69,74226.5,4.97,-13.93,-14.15,0,*7F
1537023721.8,49287,20.63,74214.8,4.99,-14.93,-13.65,0,*77
1537023723.04,49288,20.69,74218.0,4.97,-16.17,-13.65,0,*78
1537023724.31,49289,20.63,74218.8,4.99,-16.09,-12.79,0,*74
1537023725.51,49290,20.63,74204.8,4.99,-17.31,-13.11,0,*79
1537023726.76,49291,20.63,74210.5,4.99,-17.41,-13.01,0,*7E
1537023727.98,49292,20.63,74226.8,4.97,-18.21,-13.11,0,*7B
1537023729.23,49293,20.63,74236.0,4.97,-17.35,-11.81,0,*7B
1537023730.48,49294,20.63,74238.0,4.97,-16.69,-10.85,0,*71
1537023731.7,49295,20.63,74238.5,4.95,-14.83,-9.23,0,*40
1537023732.95,49296,20.69,74246.5,4.95,-12.65,-8.03,0,*4E
1537023734.2,49297,20.63,74240.8,4.93,-11.29,-8.17,0,*47
1537023735.42,49298,20.69,74238.0,4.95,-10.31,-8.11,0,*40
1537023736.65,49299,20.63,74234.3,4.95,-11.55,-8.29,0,*49
1537023737.9,49300,20.63,74228.5,4.93,-11.97,-7.11,0,*44
1537023739.13,49301,20.69,74238.3,4.95,-11.15,-5.65,0,*48
1537023740.37,49302,20.69,74238.8,4.95,-9.53,-4.85,0,*7F
1537023741.59,49303,20.63,74226.0,4.95,-8.29,-5.27,0,*7B
1537023742.82,49304,20.63,74224.5,4.95,-7.57,-6.55,0,*7C
1537023744.06,49305,20.63,74242.0,4.95,-7.57,-7.05,0,*79
1537023745.31,49306,20.69,74246.0,4.93,-9.01,-7.65,0,*77
1537023746.53,49307,20.69,74244.5,4.95,-9.75,-7.43,0,*77
1537023747.78,49308,20.69,74240.0,4.93,-9.53,-6.55,0,*7C
1537023749.02,49309,20.63,74240.3,4.95,-9.49,-5.73,0,*77
1537023750.24,49310,20.63,74246.0,4.93,-8.97,-4.13,0,*7C
1537023751.51,49311,20.69,74250.3,4.93,-9.11,-3.47,0,*74
1537023752.77,49312,20.63,74248.8,4.93,-7.77,-2.59,0,*77
1537023753.99,49313,20.63,74252.5,4.91,-6.31,-1.55,0,*78
1537023755.21,49314,20.63,74252.8,4.91,-4.99,-0.97,0,*40
1537023756.46,49315,20.63,74250.0,4.93,-4.01,-0.73,0,*48
1537023757.68,49316,20.69,74252.3,4.93,-3.19,-0.49,0,*4C
1537023758.86,49317,20.63,74248.3,4.95,-2.15,0.09,0,*5F
1537023760.08,49318,20.69,74248.3,4.93,-1.59,0.13,0,*66
1537023761.31,49319,20.69,74248.0,4.95,-0.89,0.47,0,*5C
1537023762.54,49320,20.63,74248.3,4.97,-0.65,0.55,0,*55
1537023763.77,49321,20.69,74248.3,4.99,-0.27,0.71,0,*5A
1537023765.0,49322,20.63,74258.8,5.01,0.13,0.63,0,*70
1537023766.18,49323,20.69,74258.0,5.03,-0.11,0.05,0,*6C
1537023767.4,49324,20.63,74246.0,5.01,-0.33,-0.97,0,*7F
1537023768.62,49325,20.69,74246.5,5.03,-0.11,-1.83,0,*48
1537023769.82,49326,20.69,74252.0,5.03,-0.23,-3.23,0,*42
1537023771.01,49327,20.69,74260.0,5.07,-0.81,-4.37,0,*4D
1537023772.22,49328,20.63,74250.3,5.07,-1.51,-5.15,0,*7F
1537023773.49,49329,20.69,74242.0,5.09,-1.87,-5.65,0,*7C
1537023774.72,49330,20.69,74230.3,5.09,-3.59,-8.67,0,*7A
1537023775.96,49331,20.69,74230.3,5.09,-5.35,-9.53,0,*71
1537023777.18,49332,20.63,74236.5,5.09,-7.11,-10.45,0,*49
1537023778.45,49333,20.63,74258.8,5.09,-7.43,-10.71,0,*48
1537023779.7,49334,20.69,74256.8,5.09,-7.73,-12.39,0,*42
1537023780.94,49335,20.69,74238.5,5.07,-10.57,-17.07,0,*75
1537023782.15,49336,20.69,74226.3,5.03,-14.15,-20.25,0,*74
1537023783.38,49337,20.63,74214.3,5.03,-17.11,-20.73,0,*71
1537023784.58,49338,20.63,74226.5,4.99,-17.73,-18.99,0,*77
1537023785.83,49339,20.63,74218.8,4.97,-17.31,-17.97,0,*7F
1537023787.11,49340,20.63,74228.8,4.97,-15.39,-15.39,0,*7D
1537023788.36,49341,20.63,74226.0,4.97,-17.63,-18.07,0,*71
1537023789.61,49342,20.63,74216.0,4.97,-20.39,-19.31,0,*7D
1537023790.86,49343,20.69,74236.0,4.93,-22.31,-19.17,0,*76
1537023792.07,49344,20.63,74232.3,4.95,-21.17,-17.35,0,*7E
1537023793.31,49345,20.63,74230.0,4.93,-19.47,-15.49,0,*7E
1537023794.56,49346,20.63,74226.0,4.93,-19.81,-15.15,0,*7E
1537023795.82,49347,20.63,74230.0,4.93,-18.31,-14.69,0,*7F
1537023797.05,49348,20.69,74236.3,4.93,-17.69,-15.63,0,*79
1537023798.3,49349,20.63,74234.5,4.91,-16.79,-16.09,0,*75
1537023799.55,49350,20.63,74232.5,4.91,-15.85,-16.03,0,*77
1537023800.81,49351,20.63,74236.0,4.93,-15.95,-16.31,0,*74
1537023802.06,49352,20.69,74238.0,4.95,-16.27,-15.57,0,*78
1537023803.34,49353,20.63,74232.0,4.93,-15.57,-14.75,0,*7A
1537023804.57,49354,20.63,74224.3,4.93,-15.63,-14.33,0,*78
1537023805.8,49355,20.63,74224.3,4.95,-15.89,-14.29,0,*70
1537023807.05,49356,20.69,74226.3,4.95,-15.85,-13.37,0,*77
1537023808.28,49357,20.69,74226.5,4.95,-15.15,-12.83,0,*71
1537023809.52,49358,20.69,74218.5,4.95,-13.83,-11.11,0,*7F
1537023810.74,49359,20.69,74214.5,4.97,-12.25,-10.05,0,*75
1537023811.94,49360,20.63,74220.8,4.99,-10.89,-9.79,0,*46
1537023813.17,49361,20.63,74230.5,4.99,-10.79,-10.93,0,*74
1537023814.43,49362,20.69,74230.5,4.99,-11.51,-12.11,0,*74
1537023815.67,49363,20.63,74226.0,4.99,-11.51,-11.37,0,*72
1537023816.95,49364,20.69,74236.0,4.97,-11.33,-12.83,0,*73
1537023818.17,49365,20.69,74232.5,5.03,-11.33,-13.43,0,*73
1537023819.44,49366,20.63,74210.5,5.01,-11.89,-14.43,0,*74
1537023820.69,49367,20.69,74208.0,5.01,-11.85,-13.73,0,*7D
1537023821.91,49368,20.63,74206.3,5.01,-9.01,-11.15,0,*45
1537023823.14,49369,20.69,74210.5,5.03,-9.15,-11.01,0,*46
1537023824.4,49370,20.69,74204.8,5.01,-9.83,-11.37,0,*46
1537023825.64,49371,20.63,74216.3,5.01,-9.83,-10.93,0,*48
1537023826.89,49372,20.69,74214.5,5.01,-10.75,-11.01,0,*70
1537023828.14,49373,20.63,74222.5,5.01,-10.93,-11.77,0,*78
1537023829.36,49374,20.69,74230.0,5.01,-12.43,-14.61,0,*72
1537023830.64,49375,20.63,74200.5,5.01,-12.71,-13.61,0,*75
1537023831.87,49376,20.69,74230.3,4.99,-12.35,-14.61,0,*71
1537023833.1,49377,20.69,74218.3,4.99,-13.61,-16.75,0,*77
1537023834.35,49378,20.69,74210.8,4.99,-15.21,-18.93,0,*7C
1537023835.61,49379,20.69,74222.8,4.99,-15.85,-19.61,0,*7F
1537023836.84,49380,20.63,74222.8,4.99,-17.21,-19.91,0,*7A
1537023838.05,49381,20.63,74224.5,4.99,-18.69,-20.93,0,*70
1537023839.25,49382,20.69,74236.5,4.99,-20.63,-22.03,0,*79
1537023840.53,49383,20.69,74242.3,4.97,-21.97,-22.77,0,*7F
1537023841.77,49384,20.69,74246.0,4.97,-22.87,-22.77,0,*7A
1537023843.0,49385,20.69,74240.8,4.97,-23.89,-24.05,0,*77
1537023844.26,49386,20.69,74232.3,4.93,-26.49,-24.87,0,*73
1537023845.48,49387,20.69,74230.8,4.89,-23.95,-23.75,0,*77
1537023846.68,49388,20.63,74224.3,4.89,-24.77,-25.13,0,*75
1537023847.96,49389,20.69,74226.0,4.87,-23.33,-23.03,0,*7A
1537023849.21,49390,20.69,74234.3,4.85,-22.21,-23.19,0,*79
1537023850.47,49391,20.69,74230.0,4.79,-24.35,-24.21,0,*74
1537023851.73,49392,20.63,74228.8,4.77,-23.03,-23.19,0,*77
1537023852.97,49393,20.69,74228.5,4.77,-23.85,-21.57,0,*70
1537023854.23,49394,20.69,74226.8,4.75,-22.37,-19.27,0,*71
1537023855.43,49395,20.63,74228.8,4.73,-18.21,-17.35,0,*75
1537023856.65,49396,20.69,74238.0,4.73,-20.35,-19.75,0,*72
1537023857.85,49397,20.69,74236.8,4.69,-19.03,-17.49,0,*76
1537023859.05,49398,20.69,74236.0,4.69,-18.11,-17.83,0,*7D
1537023860.3,49399,20.63,74240.5,4.67,-21.03,-18.45,0,*7E
1537023861.56,49400,20.69,74244.3,4.67,-20.89,-17.45,0,*75
1537023862.78,49401,20.69,74238.8,4.67,-17.31,-13.51,0,*72
1537023864.0,49402,20.63,74246.0,4.65,-14.79,-11.11,0,*7A
1537023865.24,49403,20.69,74236.0,4.65,-14.79,-11.55,0,*7B
1537023866.46,49404,20.63,74232.5,4.65,-12.79,-10.85,0,*76
1537023867.7,49405,20.69,74236.0,4.65,-11.37,-9.11,0,*4B
1537023868.92,49406,20.69,74228.5,4.67,-11.19,-9.27,0,*43
1537023870.16,49407,20.69,74228.5,4.67,-10.15,-7.69,0,*4B
1537023871.38,49408,20.69,74234.3,4.69,-9.75,-7.65,0,*78
1537023872.59,49409,20.69,74238.0,4.69,-9.67,-7.77,0,*79
1537023873.79,49410,20.69,74238.3,4.73,-8.93,-6.89,0,*70
1537023875.03,49411,20.69,74236.3,4.73,-7.61,-5.89,0,*70
1537023876.25,49412,20.69,74236.5,4.73,-7.73,-6.01,0,*73
1537023877.49,49413,20.63,74228.8,4.77,-7.77,-5.93,0,*7A
1537023878.7,49414,20.69,74240.5,4.77,-7.69,-6.09,0,*72
1537023879.89,49415,20.69,74240.5,4.77,-7.53,-6.35,0,*75
1537023881.11,49416,20.69,74236.5,4.79,-7.49,-6.85,0,*78
1537023882.32,49417,20.69,74246.8,4.81,-7.65,-7.15,0,*78
1537023883.59,49418,20.69,74244.8,4.79,-7.77,-7.77,0,*77
1537023884.84,49419,20.69,74256.5,4.79,-9.15,-8.41,0,*76
1537023886.02,49420,20.69,74264.5,4.81,-9.79,-8.17,0,*72
1537023887.27,49421,20.69,74268.3,4.81,-11.97,-9.11,0,*4D
1537023888.47,49422,20.69,74262.3,4.79,-13.15,-8.67,0,*41
1537023889.72,49423,20.63,74250.5,4.79,-13.83,-8.71,0,*48
1537023890.97,49424,20.69,74270.0,4.79,-14.29,-9.11,0,*4F
1537023892.25,49425,20.63,74270.8,4.75,-14.05,-8.51,0,*49
1537023893.47,49426,20.69,74268.3,4.75,-11.41,-6.51,0,*41
1537023894.66,49427,20.69,74266.5,4.73,-7.83,-4.99,0,*79
1537023895.89,49428,20.69,74256.0,4.73,-5.73,-4.73,0,*7F
1537023897.13,49429,20.69,74256.3,4.73,-5.61,-5.77,0,*78
1537023898.31,49430,20.69,74262.0,4.73,-6.39,-7.49,0,*71
1537023899.54,49431,20.63,74258.0,4.75,-7.05,-8.67,0,*7B
1537023900.73,49432,20.63,74262.8,4.73,-8.25,-9.89,0,*72
1537023901.92,49433,20.69,74266.8,4.73,-9.89,-10.89,0,*4C
1537023903.17,49434,20.69,74266.8,4.69,-10.63,-10.79,0,*73
1537023904.39,49435,20.63,74264.8,4.69,-10.89,-11.33,0,*79
1537023905.6,49436,20.69,74270.0,4.69,-11.45,-12.03,0,*7B
1537023906.82,49437,20.69,74272.3,4.67,-13.15,-13.65,0,*72
1537023908.07,49438,20.69,74276.0,4.65,-15.43,-15.81,0,*76
1537023909.29,49439,20.69,74282.0,4.65,-18.01,-16.45,0,*77
1537023910.51,49440,20.69,74282.3,4.63,-20.25,-15.99,0,*70
1537023911.74,49441,20.69,74280.5,4.63,-21.17,-14.33,0,*70
1537023913.01,49442,20.69,74274.8,4.63,-20.53,-12.11,0,*74
1537023914.22,49443,20.69,74268.5,4.61,-17.83,-10.49,0,*71
1537023915.46,49444,20.69,74250.0,4.61,-14.97,-9.41,0,*40
1537023916.66,49445,20.63,74244.3,4.61,-13.23,-8.41,0,*48
1537023917.91,49446,20.69,74238.0,4.63,-11.63,-6.89,0,*45
1537023919.09,49447,20.69,74230.0,4.57,-9.93,-5.35,0,*71
1537023920.3,49448,20.69,74224.0,4.61,-7.23,-3.71,0,*78
1537023921.51,49449,20.69,74230.8,4.61,-4.89,-2.91,0,*75
1537023922.72,49450,20.69,74218.0,4.63,-2.91,-2.39,0,*72
1537023923.97,49451,20.63,74214.0,4.63,-2.55,-2.99,0,*71
1537023925.18,49452,20.69,74216.5,4.65,-2.67,-3.75,0,*76
1537023926.43,49453,20.63,74220.5,4.67,-3.91,-5.61,0,*7E
1537023927.65,49454,20.69,74226.8,4.69,-5.27,-6.59,0,*74
1537023928.86,49455,20.69,74240.0,4.69,-5.69,-6.55,0,*73
1537023930.05,49456,20.69,74246.0,4.69,-6.47,-8.21,0,*72
1537023931.24,49457,20.69,74252.0,4.69,-7.49,-9.67,0,*7F
1537023932.44,49458,20.69,74252.0,4.73,-10.31,-12.25,0,*7E
1537023933.69,49459,20.63,74248.0,4.73,-12.35,-12.83,0,*75
1537023934.89,49460,20.69,74230.0,4.73,-11.15,-11.15,0,*72
1537023936.09,49461,20.63,74222.8,4.73,-10.27,-10.01,0,*77
1537023937.31,49462,20.69,74224.0,4.69,-8.71,-9.49,0,*71
1537023938.51,49463,20.69,74230.8,4.69,-8.71,-12.25,0,*40
1537023939.71,49464,20.69,74234.5,4.73,-14.29,-16.97,0,*71
1537023940.94,49465,20.69,74202.8,4.67,-15.95,-14.37,0,*7B
1537023942.22,49466,20.69,74190.8,4.67,-13.33,-12.79,0,*7E
1537023943.46,49467,20.69,74198.3,4.67,-12.21,-10.15,0,*75
1537023944.67,49468,20.69,74216.8,4.65,-11.37,-9.93,0,*4A
1537023945.92,49469,20.69,74220.5,4.65,-11.85,-11.81,0,*78
1537023947.14,49470,20.69,74238.0,4.65,-12.47,-12.57,0,*75
1537023948.39,49471,20.69,74224.8,4.63,-13.79,-12.47,0,*7F
1537023949.62,49472,20.63,74218.8,4.63,-13.07,-11.41,0,*70
1537023950.84,49473,20.63,74224.0,4.65,-11.01,-9.11,0,*4F
1537023952.03,49474,20.69,74224.8,4.65,-10.57,-8.41,0,*4E
1537023953.27,49475,20.69,74226.5,4.67,-9.05,-7.31,0,*7A
1537023954.49,49476,20.69,74224.8,4.65,-8.51,-7.83,0,*72
1537023955.73,49477,20.69,74228.3,4.65,-9.45,-8.07,0,*74
1537023956.97,49478,20.69,74220.0,4.65,-9.49,-7.31,0,*7D
1537023958.2,49479,20.63,74230.8,4.65,-7.95,-6.63,0,*75
1537023959.45,49480,20.69,74232.8,4.67,-7.31,-6.31,0,*78
1537023960.66,49481,20.69,74234.3,4.67,-7.11,-7.53,0,*7E
1537023961.85,49482,20.63,74212.3,4.69,-7.87,-8.17,0,*73
1537023963.09,49483,20.69,74208.0,4.67,-8.71,-8.51,0,*78
1537023964.31,49484,20.69,74208.3,4.69,-8.81,-9.79,0,*75
1537023965.52,49485,20.69,74222.5,4.69,-9.75,-9.53,0,*76
1537023966.74,49486,20.63,74208.8,4.69,-10.31,-9.41,0,*4E
1537023967.96,49487,20.69,74220.0,4.67,-11.11,-8.97,0,*48
1537023969.2,49488,20.69,74232.8,4.67,-11.11,-8.03,0,*4A
1537023970.38,49489,20.69,74246.0,4.69,-9.93,-6.13,0,*79
1537023971.6,49490,20.69,74242.5,4.69,-9.53,-5.55,0,*7C
1537023972.88,49491,20.69,74242.3,4.67,-9.41,-5.07,0,*77
1537023974.09,49492,20.69,74220.3,4.69,-7.61,-3.83,0,*7C
1537023975.28,49493,20.63,74216.5,4.69,-5.55,-3.23,0,*72
1537023976.5,49494,20.63,74242.3,4.73,-3.63,-2.99,0,*7D
1537023977.68,49495,20.69,74246.0,4.73,-3.15,-3.95,0,*70
1537023978.93,49496,20.69,74248.3,4.73,-3.51,-5.65,0,*7A
1537023980.17,49497,20.69,74246.0,4.75,-5.31,-8.89,0,*72
1537023981.42,49498,20.69,74258.3,4.75,-8.41,-11.67,0,*4F
1537023982.66,49499,20.69,74248.8,4.77,-12.61,-13.79,0,*78
1537023983.92,49500,20.69,74232.0,4.77,-13.37,-12.07,0,*73
1537023985.11,49501,20.69,74230.5,4.73,-10.97,-8.93,0,*49
1537023986.33,49502,20.69,74224.8,4.73,-8.41,-6.27,0,*79
1537023987.54,49503,20.69,74234.8,4.73,-6.69,-5.77,0,*7A
1537023988.77,49504,20.69,74224.3,4.73,-6.27,-6.27,0,*71
1537023990.0,49505,20.69,74232.8,4.73,-4.93,-5.65,0,*78
1537023991.22,49506,20.69,74230.0,4.75,-6.09,-7.15,0,*79
1537023992.45,49507,20.63,74224.3,4.75,-6.69,-7.05,0,*7F
1537023993.67,49508,20.69,74218.8,4.73,-6.93,-5.35,0,*72
1537023994.86,49509,20.69,74200.8,4.73,-5.51,-3.83,0,*75
1537023996.07,49510,20.69,74230.0,4.75,-5.35,-3.95,0,*7E
1537023997.26,49511,20.69,74224.8,4.77,-4.29,-3.15,0,*79
1537023998.47,49512,20.69,74222.3,4.75,-4.65,-3.79,0,*7A
1537023999.66,49513,20.69,74224.0,4.77,-4.29,-3.03,0,*7C
1537024000.89,49514,20.69,74226.5,4.77,-3.91,-2.51,0,*79
1537024002.14,49515,20.69,74234.5,4.79,-3.55,-2.15,0,*7E
1537024003.39,49516,20.69,74220.8,4.79,-3.75,-2.47,0,*78
1537024004.58,49517,20.69,74224.0,4.81,-2.79,-1.29,0,*78
1537024005.76,49518,20.69,74224.0,4.81,-2.31,-0.81,0,*48
1537024006.96,49519,20.69,74226.8,4.81,-2.23,-0.85,0,*4E
1537024008.15,49520,20.69,74224.0,4.81,-1.55,-0.45,0,*4A
1537024009.33,49521,20.69,74226.5,4.85,-1.25,-0.53,0,*4F
1537024010.53,49522,20.69,74230.8,4.87,-0.77,-0.29,0,*75
1537024011.73,49523,20.69,74228.0,4.87,-0.07,-0.03,0,*7B
1537024012.93,49524,20.69,74226.0,4.87,0.05,-0.15,0,*64
1537024014.13,49525,20.69,74240.5,4.91,-0.19,-0.57,0,*74
1537024015.34,49526,20.63,74240.5,4.91,-0.57,-0.73,0,*7B
1537024016.58,49527,20.69,74242.3,4.95,-1.05,-0.89,0,*4D
1537024017.8,49528,20.69,74226.5,4.95,-1.43,-1.21,0,*73
1537024019.02,49529,20.69,74230.0,4.95,-2.15,-1.87,0,*7E
1537024020.26,49530,20.69,74234.0,4.97,-2.03,-1.55,0,*7C
1537024021.48,49531,20.69,74226.0,4.97,-1.51,-0.93,0,*42
1537024022.7,49532,20.69,74228.5,4.99,-1.83,-1.17,0,*7D
1537024023.91,49533,20.69,74236.8,4.99,-1.51,-1.09,0,*7C
1537024025.1,49534,20.69,74240.0,4.99,-1.63,-1.25,0,*74
1537024026.31,49535,20.69,74240.3,4.99,-1.59,-1.35,0,*7D
1537024027.56,49536,20.69,74250.3,5.03,-1.47,-1.99,0,*75
1537024028.78,49537,20.69,74252.8,5.03,-1.13,-2.23,0,*77
1537024029.98,49538,20.69,74234.5,5.07,-1.51,-3.47,0,*79
1537024031.2,49539,20.69,74230.3,5.07,-2.19,-4.81,0,*7A
1537024032.42,49540,20.69,74242.3,5.09,-3.91,-6.51,0,*74
1537024033.65,49541,20.69,74244.0,5.07,-5.11,-7.05,0,*75
1537024034.89,49542,20.69,74238.5,5.09,-6.77,-7.57,0,*7C
1537024036.13,49543,20.69,74224.8,5.09,-7.91,-7.87,0,*79
1537024037.39,49544,20.69,74234.5,5.09,-8.03,-7.77,0,*75
1537024038.6,49545,20.69,74242.5,5.09,-8.37,-8.29,0,*77
1537024039.82,49546,20.69,74250.0,5.09,-8.67,-9.05,0,*7E
1537024041.02,49547,20.69,74240.8,5.09,-8.25,-9.31,0,*7E
1537024042.29,49548,20.69,74250.5,5.09,-7.91,-10.63,0,*4E
1537024043.53,49549,20.69,74250.8,5.09,-8.25,-13.37,0,*4D
1537024044.75,49550,20.69,74240.0,5.11,-12.61,-19.75,0,*7B
1537024045.96,49551,20.69,74252.0,5.07,-15.15,-22.53,0,*75
1537024047.16,49552,20.69,74248.8,5.07,-18.49,-24.51,0,*76
1537024048.4,49553,20.69,74238.3,5.01,-21.17,-24.41,0,*71
1537024049.63,49554,20.69,74234.5,4.97,-19.75,-20.09,0,*7F
1537024050.86,49555,20.69,74230.0,4.95,-18.99,-17.93,0,*78
1537024052.11,49556,20.69,74228.5,4.93,-17.55,-16.93,0,*73
1537024053.34,49557,20.63,74224.0,4.93,-15.15,-14.61,0,*7B
1537024054.6,49558,20.69,74230.5,4.93,-16.75,-16.17,0,*72
1537024055.83,49559,20.69,74226.3,4.93,-16.45,-16.97,0,*78
1537024057.08,49560,20.69,74224.8,4.93,-15.49,-16.51,0,*77
1537024058.37,49561,20.69,74218.0,4.87,-14.55,-15.39,0,*72
1537024059.6,49562,20.69,74226.0,4.85,-14.29,-14.79,0,*7D
1537024060.8,49563,20.69,74216.3,4.85,-15.25,-15.95,0,*72
1537024062.01,49564,20.63,74192.5,4.79,-14.69,-16.37,0,*74
1537024063.24,49565,20.69,74204.8,4.77,-14.15,-15.25,0,*70
1537024064.46,49566,20.69,74210.3,4.77,-13.33,-13.15,0,*75
1537024065.68,49567,20.69,74212.0,4.77,-10.63,-9.67,0,*4C
1537024066.94,49568,20.69,74206.5,4.79,-9.49,-8.03,0,*7E
1537024068.19,49569,20.69,74210.0,4.79,-8.41,-7.35,0,*7C
1537024069.43,49570,20.69,74210.0,4.79,-7.61,-7.15,0,*7B
1537024070.7,49571,20.69,74214.5,4.79,-7.05,-6.97,0,*73
1537024071.88,49572,20.69,74226.0,4.81,-7.49,-7.49,0,*7D
1537024073.09,49573,20.69,74212.8,4.85,-8.11,-8.55,0,*78
1537024074.28,49574,20.69,74206.3,4.85,-8.63,-9.79,0,*75
1537024075.47,49575,20.69,74206.5,4.85,-10.01,-11.11,0,*7E
1537024076.7,49576,20.69,74210.5,4.85,-11.73,-11.15,0,*7D
1537024077.96,49577,20.69,74222.0,4.87,-12.53,-10.27,0,*7F
1537024079.2,49578,20.69,74206.0,4.85,-12.07,-9.57,0,*4C
1537024080.48,49579,20.69,74208.3,4.87,-12.11,-11.29,0,*78
1537024081.72,49580,20.69,74212.5,4.87,-12.43,-13.29,0,*7B
1537024082.94,49581,20.69,74206.5,4.87,-13.65,-13.43,0,*73
1537024084.22,49582,20.69,74190.0,4.91,-14.55,-13.33,0,*74
1537024085.41,49583,20.69,74174.5,4.89,-14.89,-14.23,0,*7B
1537024086.66,49584,20.69,74204.8,4.91,-15.57,-14.69,0,*79
1537024087.91,49585,20.69,74206.3,4.91,-15.63,-14.47,0,*73
1537024089.1,49586,20.69,74218.0,4.89,-15.49,-13.23,0,*74
1537024090.35,49587,20.69,74224.3,4.91,-14.89,-11.85,0,*7F
1537024091.63,49588,20.69,74230.0,4.91,-13.87,-12.71,0,*71
1537024092.89,49589,20.69,74220.8,4.93,-14.15,-13.33,0,*79
1537024094.1,49590,20.69,74222.3,4.95,-15.67,-14.23,0,*75
1537024095.33,49591,20.69,74222.3,4.93,-15.75,-14.33,0,*70
1537024096.56,49592,20.69,74224.3,4.95,-16.03,-15.85,0,*7B
1537024097.81,49593,20.69,74226.8,4.95,-15.39,-16.27,0,*7B
1537024099.07,49594,20.63,74216.3,4.93,-16.79,-20.15,0,*79
1537024100.32,49595,20.69,74212.3,4.93,-19.85,-23.89,0,*72
1537024101.57,49596,20.63,74210.5,4.93,-21.63,-23.53,0,*75
1537024102.8,49597,20.69,74222.5,4.93,-22.03,-22.97,0,*78
1537024104.05,49598,20.69,74220.3,4.93,-22.73,-23.13,0,*7D
1537024105.34,49599,20.69,74208.3,4.93,-24.11,-24.21,0,*78
1537024106.57,49600,20.69,74196.5,4.93,-23.79,-23.43,0,*71
1537024107.85,49601,20.69,74226.3,4.91,-24.87,-24.25,0,*73